Theta_e
316 315 318 319 322 322 326 332 330 330 328 320 315 318 318 319 322 319 320 318 318 319 318 323 325 322 324 327 329 332 333 335 335 330 333 337 337 339 336 332 335 338 338 337 337 337 337 338 338 338 338 335 332 328 327 329 333 334 333 332 329 329 328 327 326 326 326 326 328 329 332 334 333 333 332 334 335 336 335 333 327 321 327 331 331 331 331 331 331 330 331 331 331 331 330 328 328
317 318 322 323 324 321 327 335 334 330 325 316 314 319 317 318 321 320 322 320 319 319 321 329 329 327 329 332 334 331 329 333 331 330 337 337 339 340 334 333 336 338 338 337 337 337 336 338 338 338 338 337 333 327 326 330 335 335 333 331 329 328 328 328 323 323 327 328 328 331 333 334 334 333 333 334 335 335 334 333 329 324 328 331 330 331 330 330 330 330 330 330 329 330 329 327 327
318 320 324 324 324 324 331 334 328 326 322 316 317 320 318 320 321 323 325 321 317 320 323 326 326 326 330 335 333 328 328 333 335 335 338 338 339 338 335 334 336 338 337 337 337 336 336 337 337 338 337 336 333 328 327 330 335 335 334 331 328 327 328 328 324 323 327 329 329 332 334 334 335 333 334 335 334 335 334 333 329 326 328 330 330 330 330 330 330 330 330 330 329 329 328 326 326
319 322 322 323 327 331 339 335 329 326 319 318 318 319 324 326 324 325 325 322 317 318 320 320 323 320 327 339 331 331 336 335 337 338 340 338 339 339 336 334 337 337 336 337 337 336 335 336 336 337 336 336 334 332 330 332 336 335 334 331 327 327 328 327 324 321 325 328 329 333 335 333 333 332 333 334 334 334 333 330 328 328 330 330 330 330 330 330 330 330 331 331 331 329 328 326 327
320 322 322 323 327 332 333 326 328 324 316 319 318 319 331 330 326 325 321 321 318 318 319 322 329 321 326 335 328 332 338 337 337 337 340 339 339 340 337 335 337 337 337 337 336 336 334 335 336 336 336 336 335 334 334 334 335 335 334 330 327 327 328 328 325 321 323 329 330 332 335 333 332 331 332 333 334 334 333 329 326 329 330 330 330 330 330 330 330 330 331 331 331 329 327 326 326
321 323 323 322 320 323 324 317 319 322 320 322 321 322 330 327 323 325 320 318 319 318 318 322 329 328 331 331 326 332 334 337 339 337 339 340 340 340 337 335 337 337 337 337 337 337 335 335 335 336 336 336 336 334 335 335 334 334 333 330 328 327 328 328 326 321 320 327 330 331 333 333 332 332 331 333 334 334 334 330 325 329 330 329 329 329 329 329 329 330 331 331 330 328 328 327 326
320 323 326 325 321 322 327 323 319 321 318 318 325 326 326 325 322 322 319 318 318 316 318 321 326 329 332 327 326 330 331 334 337 337 340 340 340 341 338 335 337 337 337 338 337 337 337 336 336 336 336 336 335 335 336 335 334 333 332 331 329 328 328 329 326 321 317 324 329 330 332 332 332 333 332 333 334 333 333 330 325 327 330 328 329 329 329 329 329 329 330 330 330 329 328 327 326
322 324 328 331 330 328 328 322 321 322 316 314 322 324 324 324 321 320 320 320 318 317 318 320 323 326 325 325 331 331 331 334 336 339 340 340 341 341 338 335 336 337 337 338 338 338 337 337 336 336 336 336 335 335 336 335 335 334 333 331 330 329 328 329 327 321 315 321 329 329 330 330 330 332 333 333 333 332 332 329 323 324 329 328 328 329 329 329 329 329 329 329 328 329 328 327 327
319 322 326 328 328 330 328 316 315 319 317 318 319 322 323 320 319 319 320 318 317 318 317 317 319 321 323 328 335 331 332 335 336 339 340 340 341 340 338 336 336 336 337 337 338 338 337 337 336 336 336 336 336 336 336 335 335 334 335 332 330 329 328 329 327 323 315 318 326 327 327 326 326 330 332 331 332 331 330 329 322 322 328 327 327 329 328 328 328 329 329 328 328 328 328 328 327
321 321 324 328 329 324 319 315 318 319 317 319 319 322 321 317 318 318 319 317 316 317 315 317 321 324 326 332 335 330 332 335 336 340 341 341 340 340 338 336 336 335 336 337 338 337 337 338 337 337 336 336 336 336 336 335 335 335 335 333 331 329 329 329 328 324 316 315 322 325 325 322 321 327 330 329 330 330 329 329 322 321 327 327 327 328 327 328 328 328 328 328 328 327 328 327 326
326 329 331 331 329 319 316 318 320 322 317 317 318 319 318 316 318 317 319 316 316 318 316 317 325 332 329 331 333 329 330 335 338 340 340 341 341 340 339 337 336 334 335 335 336 337 337 338 337 336 335 336 336 336 336 335 335 335 335 334 331 330 329 329 329 326 319 315 321 324 323 322 320 323 327 327 328 328 328 328 323 323 327 326 327 327 327 327 327 327 328 327 327 326 327 327 326
325 334 346 334 325 323 324 322 317 321 316 317 319 317 316 315 316 317 318 317 317 319 318 317 322 330 330 330 329 327 331 336 337 340 341 341 341 340 339 337 336 335 335 334 335 337 337 338 338 337 336 335 336 336 336 335 335 335 335 334 332 330 329 329 329 327 322 317 321 324 324 324 322 321 324 325 327 327 327 326 324 324 326 326 326 327 325 325 325 325 326 326 325 325 325 326 326
334 335 341 323 321 324 324 320 317 320 317 320 320 315 314 313 317 320 320 319 317 318 316 315 322 328 329 329 327 329 334 335 337 340 340 341 341 340 340 338 337 338 338 336 334 336 338 338 338 337 336 336 336 336 336 335 335 335 334 334 332 331 329 329 329 328 324 319 321 324 324 325 323 322 322 324 326 326 326 326 325 325 325 326 326 325 323 323 323 323 324 325 324 324 324 324 325
337 341 339 321 318 322 321 319 317 319 319 323 319 314 314 313 316 319 320 319 318 318 313 313 321 328 326 325 330 334 335 334 337 338 338 340 341 340 340 340 339 338 340 338 335 334 336 337 337 336 336 336 336 336 336 335 334 334 334 334 333 331 330 330 330 329 325 321 321 322 322 322 322 322 320 321 323 324 324 324 324 324 324 325 325 324 323 322 322 322 323 323 324 323 323 323 323
328 344 345 329 319 318 319 319 320 321 320 321 316 314 315 313 314 316 318 320 320 315 311 311 316 320 322 325 330 335 334 334 336 336 337 339 339 340 340 339 340 339 340 340 337 334 334 336 336 335 335 335 335 336 336 335 335 334 334 334 333 331 330 329 329 329 327 323 322 321 320 320 320 319 317 316 317 319 321 322 324 324 324 324 324 323 322 322 322 322 322 322 323 323 322 322 322
331 343 337 325 318 315 316 317 320 320 319 319 314 313 316 312 312 315 314 317 317 313 315 314 313 317 319 323 323 323 331 335 335 336 336 337 337 339 340 340 340 340 340 340 339 335 333 334 335 335 335 335 335 335 335 336 335 334 334 334 333 332 331 330 329 330 328 325 323 323 322 321 320 318 315 311 310 312 315 320 323 324 323 324 323 321 321 322 321 321 321 322 322 322 322 321 321
329 338 333 322 319 317 317 318 319 320 322 319 314 314 317 314 312 313 310 314 316 316 322 318 316 323 325 326 320 319 331 335 334 335 334 335 336 336 338 340 340 340 341 340 340 337 334 333 334 335 334 334 334 335 335 335 335 335 335 334 334 333 331 330 330 330 329 327 324 323 323 322 321 319 315 309 307 308 311 318 322 323 323 323 321 320 321 321 321 321 321 321 321 321 321 320 320
328 336 333 322 322 321 321 323 319 320 321 317 316 316 318 316 314 313 312 316 317 316 320 320 323 327 326 326 321 323 333 334 334 334 334 335 335 336 337 338 339 340 340 340 340 338 336 333 333 334 334 334 334 335 335 335 335 335 335 334 334 333 332 331 330 330 330 327 326 324 323 323 322 320 317 310 306 306 308 315 319 320 322 322 320 320 321 320 320 320 320 320 320 320 320 319 319
334 334 326 328 334 322 319 322 317 317 317 316 316 315 317 316 315 314 314 316 316 316 317 320 326 330 329 327 324 328 333 333 334 333 333 334 335 336 337 337 339 339 340 340 339 339 337 334 333 333 333 333 333 334 334 334 335 335 335 335 334 333 333 331 330 330 330 329 327 325 324 323 323 321 318 312 307 305 306 310 313 317 320 320 318 320 320 320 320 319 319 320 320 320 319 319 318
329 328 321 331 338 322 317 319 316 316 316 317 316 313 315 315 314 313 316 317 315 318 318 319 324 334 337 329 326 330 331 332 332 332 332 332 335 336 337 338 338 339 340 340 340 339 337 335 333 332 332 333 333 334 334 334 334 334 335 335 334 334 333 332 331 331 330 329 328 327 325 324 324 322 319 314 308 305 305 305 307 312 316 316 316 318 319 319 319 319 319 319 319 319 319 318 318
319 325 327 327 325 319 317 317 317 316 314 316 316 314 314 314 313 312 316 317 315 318 318 319 321 337 341 328 327 330 330 331 331 331 331 331 334 335 337 337 338 339 340 340 340 339 338 336 334 333 333 332 333 333 333 333 333 334 333 334 334 333 333 332 331 331 331 330 329 328 326 325 324 324 321 315 309 305 303 302 304 308 311 312 314 315 317 318 318 318 319 319 319 318 318 318 318
315 318 321 321 318 316 316 317 317 314 312 316 316 315 314 313 313 314 317 318 319 318 317 319 319 336 341 330 327 328 328 329 329 330 330 331 333 335 337 337 338 339 340 340 339 339 338 337 335 334 333 333 332 332 332 333 333 333 333 333 333 333 333 332 332 331 331 330 329 328 327 326 325 324 323 318 311 305 303 301 303 306 308 311 313 314 316 317 318 318 318 318 318 318 318 318 318
318 315 315 317 317 316 315 317 316 313 314 317 316 314 314 314 314 315 316 317 320 317 317 315 313 327 333 328 326 328 328 327 328 329 329 331 332 334 336 336 338 338 339 340 339 339 338 338 336 335 334 334 333 333 332 332 332 332 332 332 332 332 332 332 332 331 331 331 329 328 327 326 325 325 323 320 313 306 304 302 302 305 307 310 312 312 314 316 317 317 318 318 318 318 318 318 319
322 318 314 316 316 316 316 316 317 316 317 317 314 313 315 318 315 312 313 316 318 315 311 307 309 321 326 326 327 327 328 327 328 329 329 331 333 333 335 335 337 337 338 339 339 339 338 338 337 335 336 335 334 334 333 332 332 331 331 332 332 332 332 332 332 332 332 330 330 329 327 327 326 325 324 321 316 309 304 302 302 303 305 309 312 312 313 315 316 317 317 318 318 318 318 318 319
321 317 316 316 315 317 316 316 318 317 317 314 313 315 316 316 313 312 315 318 318 314 311 310 316 325 327 329 329 326 326 326 327 328 329 330 331 332 333 334 335 336 337 337 338 338 337 338 337 336 336 336 335 334 334 333 332 332 331 332 331 331 331 332 331 331 331 330 329 328 328 327 326 325 324 322 317 310 305 302 301 302 305 309 312 312 313 313 314 315 316 317 317 317 318 318 319
318 317 317 317 315 316 315 315 318 319 317 314 315 316 316 314 312 315 320 320 316 316 320 323 328 333 330 330 329 326 326 325 326 327 328 329 330 330 331 333 334 335 336 336 336 336 336 337 337 337 335 335 336 335 335 334 333 332 331 331 331 331 330 331 330 330 330 329 328 328 328 328 327 326 324 322 318 312 306 302 301 302 305 309 311 312 312 312 313 314 315 315 316 317 318 318 319
318 319 318 318 317 316 316 315 316 318 316 315 316 316 316 314 313 317 319 316 312 316 325 324 331 340 331 329 327 324 325 325 326 327 327 327 327 328 329 330 332 333 334 334 335 335 335 336 337 337 335 335 335 335 336 335 334 333 332 331 331 330 330 330 329 330 329 328 328 328 328 328 327 326 324 322 319 314 308 303 302 302 305 309 310 311 312 312 312 312 313 314 315 316 317 318 319
317 320 317 319 321 317 315 316 315 316 315 314 316 316 315 314 315 318 315 315 313 315 323 322 328 334 327 327 327 324 324 325 326 326 326 327 327 327 327 329 330 331 333 334 334 334 335 335 336 336 336 336 335 335 335 336 336 334 334 332 331 330 329 329 329 329 329 328 328 328 328 328 328 326 325 323 321 316 310 305 302 302 305 308 309 310 311 311 311 312 313 314 315 316 317 318 318
317 319 318 320 326 321 314 316 316 315 315 314 316 313 315 316 317 317 314 315 315 314 319 323 325 324 321 323 324 323 323 323 324 324 325 326 327 327 326 327 327 329 331 332 333 333 334 334 336 337 337 337 336 335 335 336 336 335 335 333 332 331 329 329 328 328 329 328 328 327 328 328 328 327 325 324 323 320 312 306 303 303 305 308 309 309 310 310 311 312 312 314 315 316 317 317 317
316 318 320 321 323 322 315 314 316 315 315 315 313 312 319 322 318 315 313 314 315 315 319 321 323 321 319 318 320 322 320 318 320 322 325 325 326 326 325 325 325 327 327 328 330 331 333 333 335 337 337 338 337 336 336 336 337 336 336 335 334 332 331 330 329 329 328 328 328 328 328 328 328 328 326 325 325 322 315 307 305 304 306 308 310 310 310 310 310 311 312 314 315 316 317 317 317
317 313 323 325 317 320 321 316 317 314 314 315 313 313 321 324 320 316 313 314 314 317 321 320 319 318 316 317 317 318 316 315 317 320 322 323 324 324 324 324 324 325 325 326 327 328 330 332 334 336 337 338 337 337 336 336 337 337 336 335 334 334 332 331 330 330 329 328 328 328 328 327 328 328 327 326 326 325 320 310 306 306 307 309 311 311 311 310 310 311 312 314 315 316 316 316 316
324 314 322 324 313 323 326 317 317 316 314 315 314 317 321 320 321 317 313 315 315 316 320 319 317 316 314 315 315 315 313 311 313 316 318 320 321 322 322 322 323 324 324 325 325 326 327 329 332 335 336 337 337 338 337 337 337 337 337 336 335 334 334 333 331 331 331 330 329 329 328 328 328 327 327 327 326 326 324 317 309 307 309 310 311 311 310 310 309 310 312 313 315 315 315 315 314
328 318 321 322 315 321 321 315 317 317 315 315 314 317 322 319 319 318 313 315 316 317 320 320 320 318 315 313 312 313 312 310 310 310 314 316 318 319 320 319 320 321 322 323 324 326 327 327 330 333 335 336 336 337 337 337 337 337 337 336 336 335 334 334 332 332 332 331 330 330 329 328 328 328 328 328 327 326 326 323 315 309 310 312 312 311 310 310 309 310 311 312 314 314 314 313 313
322 319 320 322 319 318 319 319 317 315 316 316 315 317 321 320 321 322 316 312 314 317 321 322 322 320 317 314 313 313 313 313 311 308 311 314 316 317 317 317 317 318 320 322 323 324 326 327 328 330 332 334 335 335 335 336 336 337 337 336 335 334 333 334 334 333 333 332 332 331 330 329 329 329 328 328 327 326 326 326 321 313 311 312 312 311 310 309 309 309 310 311 312 313 314 313 311
318 319 318 318 317 315 318 321 316 314 316 317 317 317 320 321 318 319 317 311 313 317 317 317 317 317 316 315 314 314 313 314 311 308 310 312 313 315 316 316 317 318 319 321 323 324 325 327 328 329 330 331 333 334 334 335 335 336 337 336 336 335 334 334 334 334 333 332 332 332 331 330 330 329 329 329 328 326 324 325 323 317 313 313 312 310 309 308 308 308 309 310 310 311 312 311 310
319 323 325 324 321 318 320 322 315 313 316 318 318 318 320 320 317 318 317 311 312 315 315 314 314 314 314 313 313 313 313 313 310 308 310 310 311 312 313 315 316 317 318 320 322 325 326 327 328 329 329 331 332 332 333 334 334 335 336 336 336 335 335 335 335 334 333 333 332 332 332 331 331 330 329 329 328 326 324 323 324 319 315 313 312 311 310 309 308 308 308 309 308 307 307 308 309
320 323 327 327 322 320 319 318 316 314 316 319 318 317 319 318 317 317 314 311 312 314 315 314 313 313 313 313 313 312 313 312 308 308 309 309 310 311 312 312 314 317 318 320 322 323 325 326 328 329 329 330 331 332 332 333 333 333 334 335 335 335 335 335 335 335 334 334 333 333 333 332 331 330 329 328 327 326 325 324 323 320 315 313 314 314 312 309 307 307 307 307 307 306 305 305 306
320 322 324 322 319 320 316 314 317 316 315 320 319 318 319 318 317 316 313 313 314 316 316 315 314 312 312 312 312 312 312 310 310 309 308 309 310 311 311 311 312 315 317 319 321 321 324 326 327 328 328 330 331 331 332 332 332 331 332 333 333 333 334 335 335 335 335 335 334 334 333 332 331 331 330 329 328 327 326 325 323 320 316 314 314 314 312 308 306 305 305 304 304 305 305 304 304
325 322 321 320 319 320 317 316 318 316 315 322 325 323 319 318 318 317 315 316 314 314 315 314 314 313 312 311 310 311 311 312 312 310 307 307 310 310 311 311 312 314 317 318 320 321 323 325 327 328 328 329 330 331 331 331 331 331 331 331 331 332 332 333 334 334 335 335 334 334 333 333 332 331 329 328 328 326 325 325 324 323 320 315 312 310 309 307 305 304 305 305 303 302 302 303 303
326 323 322 321 320 320 319 317 318 316 314 318 323 321 317 317 320 320 316 314 314 314 313 313 312 312 311 311 311 311 312 312 313 312 310 306 307 310 310 311 312 314 316 318 320 321 323 324 326 327 328 329 329 330 330 330 330 330 330 330 330 330 330 331 332 333 333 334 334 333 333 333 333 332 330 328 327 325 324 323 323 323 323 319 313 310 309 308 305 303 304 306 304 300 298 298 301
320 328 332 327 323 323 319 317 319 318 316 317 319 317 322 328 329 331 324 315 315 317 317 316 314 312 311 311 312 312 312 312 312 314 314 307 305 308 310 311 312 314 316 318 319 320 322 323 324 326 327 328 328 329 329 330 330 329 329 328 328 328 328 329 330 331 331 332 332 332 332 332 332 332 331 330 329 327 326 324 323 323 322 320 314 310 309 307 305 304 303 304 305 303 299 296 297
317 325 332 329 329 328 322 320 322 322 318 316 313 314 330 337 330 330 325 316 316 317 317 317 315 314 317 316 314 313 313 312 312 313 313 307 304 307 310 310 311 313 316 317 318 320 321 322 324 325 326 327 328 328 328 329 329 329 328 327 326 326 326 327 328 329 330 330 331 331 332 332 332 332 332 332 331 330 329 327 325 323 319 317 313 310 308 306 305 305 304 304 304 305 302 296 295
317 318 322 328 332 330 326 321 318 321 317 311 312 316 323 325 319 319 320 317 321 320 318 321 318 313 319 322 321 321 318 315 315 316 313 309 306 307 309 310 312 313 315 316 318 320 321 322 323 325 325 326 327 327 327 327 327 328 327 327 327 326 326 326 327 328 329 329 330 330 331 331 332 331 331 331 331 331 330 329 327 325 322 318 314 311 309 308 308 307 305 305 305 305 303 298 295
319 317 322 329 332 330 331 326 321 323 318 316 323 324 318 318 316 318 319 320 325 325 324 330 323 313 316 324 324 326 325 321 321 323 323 315 307 307 310 311 312 313 314 316 318 319 320 322 323 324 325 325 326 327 327 326 327 327 326 326 326 326 326 325 326 326 327 327 328 328 329 329 330 329 330 330 330 330 330 328 326 324 322 319 316 313 312 311 309 306 303 304 304 303 304 303 299
320 316 321 326 328 332 335 335 332 325 315 318 327 319 315 324 326 322 319 317 321 325 322 323 320 313 315 320 321 322 322 319 318 324 328 319 308 308 311 312 313 313 314 315 317 318 319 321 322 323 324 325 325 325 326 326 326 326 326 326 325 325 325 325 324 324 325 325 325 326 326 326 327 328 328 329 329 329 328 326 323 321 320 319 317 314 312 311 308 306 306 304 302 301 303 304 303
318 314 319 321 325 330 332 334 330 320 315 322 326 316 313 322 329 326 317 315 321 324 321 318 317 317 318 320 322 321 322 321 321 324 319 309 308 311 311 312 314 314 314 315 317 318 319 320 321 322 322 323 324 325 325 325 325 325 325 325 325 325 325 324 323 322 322 322 322 322 322 323 324 325 327 328 328 327 326 326 325 323 320 319 319 317 311 308 306 306 307 305 302 301 302 303 303
315 320 323 322 326 330 332 334 324 314 319 326 322 317 312 314 326 329 317 316 322 321 323 324 323 325 325 329 332 328 330 331 329 329 317 305 308 312 311 313 314 314 315 315 316 317 318 319 320 320 321 321 322 323 324 324 324 324 324 324 324 324 324 323 321 321 320 320 320 320 320 320 321 322 324 326 327 325 323 323 324 323 319 316 316 316 312 309 307 305 303 302 302 302 301 302 302
320 328 327 321 325 327 329 333 323 316 325 323 317 316 314 313 324 329 322 320 319 318 322 325 325 326 326 331 332 329 331 330 329 334 327 315 314 312 311 313 314 314 315 315 316 317 317 319 319 320 320 320 321 321 322 322 322 323 323 323 323 323 323 322 321 321 320 319 319 318 318 318 318 319 320 322 324 325 323 321 320 320 319 317 315 314 312 310 308 306 303 302 304 303 301 301 300
323 326 327 322 324 321 321 328 323 321 322 315 316 319 314 315 320 322 325 323 319 318 319 321 323 324 328 334 335 334 333 331 333 338 336 333 324 312 310 313 313 314 315 315 316 316 316 318 318 319 319 319 320 320 320 321 321 322 322 322 322 321 321 321 320 320 319 318 318 317 316 316 316 316 317 318 320 322 323 321 320 318 318 318 316 315 314 311 309 306 304 304 304 303 302 301 300
319 322 325 323 323 319 320 325 319 318 318 313 315 318 316 320 318 316 320 317 317 316 316 320 320 320 325 331 335 338 336 334 339 342 344 345 325 307 309 314 312 314 314 315 315 315 316 316 316 317 317 318 318 318 319 319 319 320 320 320 320 320 319 319 319 318 317 317 316 316 315 315 315 314 314 315 315 317 318 319 319 317 317 317 317 315 314 312 310 308 306 304 303 303 303 303 302
318 320 319 320 327 325 323 324 320 320 321 316 313 316 324 325 315 314 317 315 316 317 319 319 318 319 321 322 327 334 337 336 339 344 345 334 314 307 311 312 312 314 314 314 315 315 315 315 316 316 316 316 316 317 317 317 317 318 318 318 318 318 318 317 317 317 316 316 316 315 315 314 314 313 313 313 313 312 312 313 313 313 314 315 316 315 314 312 310 308 306 305 304 303 303 302 302
318 316 314 317 324 325 320 316 318 319 319 319 316 320 329 323 315 316 316 316 318 320 324 323 321 323 321 323 328 333 341 343 340 345 349 328 307 307 312 311 313 314 313 315 315 314 315 315 315 315 315 315 315 315 316 315 316 316 316 317 316 317 317 316 317 316 316 316 315 315 314 314 313 312 312 312 311 311 310 310 309 309 311 313 315 315 314 312 311 309 307 305 305 304 303 302 302
318 316 319 319 317 324 322 312 312 314 313 318 318 319 324 317 314 318 316 318 321 322 324 322 322 324 323 327 327 329 342 346 340 344 347 328 307 307 311 311 313 313 313 315 314 314 315 314 315 314 314 315 314 314 315 314 315 315 315 315 315 315 315 316 316 315 315 315 314 314 313 313 313 312 312 311 311 311 310 309 308 307 309 311 313 314 314 313 311 310 309 307 306 306 304 303 302
320 321 322 316 311 321 324 316 320 319 315 320 318 316 320 316 316 319 316 316 319 323 324 321 321 323 325 326 318 322 339 341 336 335 331 319 306 306 311 310 311 313 313 314 314 314 314 313 314 314 313 314 314 314 314 314 314 314 314 314 314 315 314 314 315 314 314 314 313 314 313 313 313 312 312 311 311 310 309 309 308 307 308 310 312 313 313 313 312 310 310 309 309 308 305 304 303
320 323 319 318 319 322 319 315 322 320 316 324 323 315 314 315 317 319 315 316 320 321 321 322 323 321 325 325 316 321 334 332 332 335 335 326 310 306 311 311 311 312 312 313 313 313 313 313 313 313 313 314 313 314 314 313 314 313 314 314 313 314 314 314 314 314 314 314 313 313 313 312 312 312 312 311 310 310 309 309 308 307 308 309 311 312 313 313 312 311 310 309 309 307 305 304 303
316 315 313 318 324 324 320 316 318 318 316 321 323 319 316 317 318 317 314 318 322 320 319 321 322 320 323 323 317 322 329 330 334 336 341 334 310 305 311 311 312 313 312 313 313 313 314 313 313 313 313 313 313 314 313 313 314 313 313 314 313 313 313 313 313 313 313 313 313 313 312 312 312 311 311 311 310 310 309 309 308 308 308 308 310 311 312 313 312 311 310 310 309 307 305 304 303
318 317 316 318 318 318 321 317 316 320 321 321 320 317 320 324 320 316 314 316 321 324 321 322 323 322 320 315 315 323 329 335 338 333 337 326 305 306 313 312 314 315 314 314 314 314 314 313 313 313 312 313 313 313 313 313 313 313 313 313 313 313 313 313 313 313 313 312 312 312 312 312 311 311 311 310 310 309 309 309 308 309 309 308 309 310 311 311 311 310 310 309 309 307 305 304 303
317 317 317 318 317 317 319 316 315 317 318 320 319 313 319 328 321 317 317 317 318 320 319 321 322 317 315 314 317 323 330 337 336 333 336 320 304 308 315 315 317 316 315 316 315 314 315 314 314 313 313 313 313 313 313 313 313 313 313 313 313 313 312 312 312 312 312 312 312 312 311 311 311 311 310 310 310 309 309 309 309 309 309 309 309 309 309 310 309 309 309 308 307 306 305 304 302
Wind_Speed
5 4 2 1 2 1 2 5 2 2 4 2 1 1 2 2 2 2 2 1 1 1 2 1 2 3 3 5 7 6 4 4 5 4 3 4 11 23 21 18 20 21 21 21 20 18 17 16 15 15 14 14 14 14 14 14 13 13 12 13 13 13 14 14 15 15 16 18 19 20 20 17 16 14 13 14 16 16 17 18 19 20 23 23 22 21 21 21 20 21 21 21 22 23 23 24 25
4 1 1 1 1 1 1 3 3 3 5 2 2 2 2 2 1 5 6 4 3 2 2 4 6 5 6 7 6 4 3 1 4 3 1 4 16 22 19 19 21 21 22 22 20 19 19 17 16 15 14 14 14 14 14 13 13 12 12 12 13 13 13 13 14 15 16 17 19 19 18 16 14 14 14 14 15 16 17 19 19 20 23 22 21 21 20 20 21 21 21 22 22 23 22 23 25
3 1 1 2 2 3 1 4 2 1 5 2 4 3 1 1 5 6 7 5 4 6 4 3 5 4 5 6 3 2 1 1 3 1 1 11 16 18 21 20 21 21 22 22 20 19 20 18 16 15 14 15 15 15 14 13 13 12 12 12 12 12 12 13 14 14 15 17 18 18 17 15 13 13 14 14 15 15 17 18 18 20 23 22 21 20 20 20 20 21 21 21 21 21 21 22 24
2 0 0 2 1 4 4 4 2 5 3 3 3 4 2 5 7 6 6 5 4 3 1 1 4 2 3 4 1 2 1 0 2 1 4 13 15 19 22 21 22 21 22 22 20 19 19 19 17 16 15 15 15 15 14 13 13 13 11 12 12 12 12 12 13 13 15 16 17 17 15 14 13 13 13 14 15 15 17 18 18 21 22 22 21 20 20 19 20 20 19 19 19 19 20 21 20
2 1 1 2 2 2 3 3 2 5 4 5 2 5 5 6 7 5 4 4 4 3 3 2 3 2 2 3 1 1 3 1 3 3 7 13 16 21 23 23 23 21 23 22 20 19 19 18 17 16 15 15 15 15 14 14 14 13 11 12 12 11 12 12 12 12 14 15 16 16 15 13 13 12 12 14 14 15 17 17 19 21 22 21 20 19 19 18 19 18 18 18 18 18 19 20 20
1 1 3 4 3 1 3 2 2 2 5 6 4 5 6 6 7 6 2 2 3 3 4 2 3 2 2 1 0 3 3 2 5 6 11 15 17 22 22 24 23 22 23 22 21 20 19 19 17 16 15 15 15 15 14 14 14 13 11 11 11 11 11 11 12 11 12 14 14 15 15 15 13 12 12 13 13 15 16 17 20 22 21 21 19 19 18 18 18 18 18 18 18 18 19 20 20
1 1 3 5 2 2 3 3 4 3 3 5 5 5 7 7 5 5 3 1 1 1 1 1 4 6 1 2 0 2 2 2 5 7 14 16 19 22 22 24 23 22 22 22 22 20 20 19 18 17 15 15 15 15 14 14 14 13 12 12 11 10 11 11 11 10 11 12 12 14 16 16 14 12 12 13 13 15 16 17 19 21 21 20 19 18 17 17 17 17 17 17 17 18 18 19 19
2 1 1 3 2 3 4 2 3 3 1 3 4 5 8 7 5 6 3 2 2 1 3 1 2 6 0 1 2 3 3 4 6 9 16 17 22 23 23 25 23 22 22 22 22 20 20 19 18 17 16 15 15 15 14 14 14 13 12 12 12 11 11 10 10 10 10 11 12 13 15 15 14 13 12 12 13 14 15 15 16 20 20 20 19 18 17 17 16 16 17 17 17 17 17 18 19
4 2 0 3 1 3 3 2 1 2 2 4 3 3 5 6 5 5 4 1 1 1 1 3 1 2 2 2 1 4 2 6 8 12 17 20 24 24 24 25 23 23 22 22 22 21 21 20 19 17 16 16 15 15 14 15 14 14 13 12 12 11 11 10 10 10 9 11 12 12 13 12 12 14 12 11 11 12 13 13 13 18 20 20 18 17 16 16 16 16 16 17 17 17 17 18 19
4 3 1 2 2 3 3 1 1 2 4 4 4 4 4 5 4 3 4 2 1 3 1 2 3 2 3 3 2 3 0 7 12 17 20 23 24 23 24 23 23 23 22 22 22 22 21 20 19 18 17 16 16 15 15 15 14 14 13 12 12 11 11 10 10 10 10 11 12 12 11 11 12 14 13 11 11 11 12 12 13 18 20 19 17 16 16 16 16 16 16 17 17 18 18 19 20
3 4 3 4 3 3 2 3 3 3 4 4 2 4 4 5 5 3 3 3 0 2 2 1 2 3 3 0 3 2 2 9 16 22 24 25 24 23 22 22 22 21 22 22 21 23 22 20 19 18 17 17 17 16 16 15 15 15 13 12 12 12 11 10 10 10 10 11 12 12 11 11 12 14 14 13 13 13 13 13 15 20 20 18 16 15 15 16 16 16 17 17 18 19 20 20 20
2 3 4 4 2 3 3 4 3 4 5 3 2 3 4 5 5 4 3 4 1 1 3 2 3 5 4 2 3 4 3 12 18 24 26 24 24 22 21 21 22 20 20 20 21 22 22 20 19 18 17 17 17 17 17 17 16 16 15 13 13 13 12 11 11 10 10 11 12 12 12 12 12 13 13 14 15 15 16 16 17 19 20 18 16 15 16 17 16 17 17 18 19 19 20 20 20
3 1 5 2 2 3 3 4 3 2 4 3 4 2 6 5 4 7 6 4 3 3 4 5 5 5 3 2 2 4 5 15 20 25 25 24 25 23 21 20 21 19 18 19 21 22 22 21 20 18 17 17 17 17 17 17 17 17 16 15 14 13 12 12 11 11 11 11 12 12 12 12 12 12 13 15 16 16 17 17 17 18 19 18 14 15 17 17 17 17 17 18 19 19 19 20 20
3 3 5 2 1 3 4 3 2 2 3 6 3 3 5 2 4 6 8 5 4 5 2 4 7 5 2 2 2 3 8 17 22 24 23 24 25 24 22 20 20 20 18 19 21 22 22 21 20 19 18 18 17 17 17 17 17 17 16 15 15 14 13 12 12 11 11 11 11 11 12 12 12 12 13 14 15 16 17 18 18 17 19 17 13 16 18 16 17 17 17 18 18 18 18 19 19
3 3 4 3 2 1 4 2 3 5 4 5 3 5 4 1 3 5 5 7 6 5 1 1 4 2 3 4 3 5 16 22 23 24 23 23 23 23 23 21 21 21 20 20 21 22 23 22 21 20 20 19 19 19 19 18 17 17 16 16 16 15 14 13 12 12 11 11 11 11 11 11 10 10 11 12 13 15 17 17 18 17 18 17 14 16 18 16 16 16 17 18 18 18 18 18 18
3 4 5 3 1 2 4 2 3 3 5 5 2 5 5 2 3 4 4 5 3 1 2 0 1 0 3 7 2 6 23 25 23 24 22 21 20 19 21 22 23 22 22 22 22 22 23 23 23 22 21 20 20 20 19 19 18 17 17 16 16 15 14 14 12 12 11 11 11 11 11 10 10 9 9 11 13 14 15 17 17 16 16 16 14 17 18 16 15 15 16 16 17 17 17 18 19
3 4 4 2 2 3 4 4 5 4 5 5 3 5 8 1 1 2 1 5 4 1 3 1 1 2 3 4 6 7 28 27 24 24 21 21 19 17 19 22 23 23 24 24 24 23 23 24 24 23 22 21 21 21 20 19 18 17 17 17 17 16 15 14 13 13 12 12 11 11 11 10 10 9 9 10 12 13 15 17 17 16 16 15 15 18 17 16 15 15 15 16 16 16 16 17 18
4 3 3 2 3 4 5 7 7 4 4 6 5 6 8 5 3 1 2 5 3 2 3 2 3 2 2 5 3 16 31 27 24 25 21 21 18 17 19 21 24 25 26 26 26 25 25 25 24 24 23 22 22 21 21 20 19 18 17 17 17 17 15 14 14 13 13 12 12 11 11 11 10 10 10 10 12 13 14 16 17 17 18 16 16 19 18 16 15 15 16 16 16 16 16 17 18
4 3 3 3 6 4 5 7 6 3 2 5 5 4 6 7 5 3 2 1 1 2 2 5 5 4 4 3 8 23 29 26 25 25 23 22 20 20 20 21 24 26 27 28 28 26 26 26 25 26 24 24 23 23 22 21 20 19 18 18 18 18 16 15 14 14 13 13 12 12 11 11 10 10 10 10 11 12 13 15 16 18 19 17 18 20 18 17 16 16 16 17 17 17 16 17 18
2 4 2 5 6 4 4 5 6 4 3 6 4 3 3 4 4 2 4 4 2 5 5 1 3 6 1 2 11 21 24 23 23 23 23 23 22 22 21 23 26 29 30 30 30 28 28 27 27 27 25 25 24 24 23 22 21 20 20 20 20 19 18 16 16 15 14 14 13 12 12 11 11 10 10 10 11 12 13 14 16 18 19 18 19 20 19 18 17 16 17 17 17 17 17 17 19
2 4 4 6 4 2 3 6 6 4 4 6 5 4 2 2 2 2 6 6 3 6 7 7 9 8 6 4 9 17 20 19 20 21 22 22 22 23 24 26 29 30 29 29 29 30 29 29 28 28 27 26 26 26 25 24 23 22 21 22 21 20 20 18 17 17 16 15 14 13 13 12 12 11 11 11 11 12 14 15 16 18 18 18 19 19 18 18 17 17 17 18 18 17 18 18 19
2 1 4 5 3 1 2 5 3 2 5 5 6 6 4 2 2 3 9 7 6 7 8 11 10 10 12 11 12 14 15 16 18 20 21 23 23 24 25 25 26 26 26 29 30 31 30 30 30 29 29 28 27 27 26 25 25 24 23 23 23 22 22 21 19 19 18 17 16 15 14 14 14 13 12 12 13 13 14 16 17 17 17 18 18 18 18 18 17 18 18 18 19 18 18 19 20
2 2 2 4 4 1 1 1 2 3 8 7 6 4 3 4 1 3 8 8 8 6 7 9 8 10 15 15 14 12 12 15 18 23 25 26 27 27 28 28 28 28 28 30 30 31 31 31 31 31 30 29 29 28 27 27 26 26 25 25 25 24 24 23 22 21 20 19 18 17 16 16 15 15 15 14 14 14 15 16 17 17 17 18 18 17 18 18 18 18 19 19 19 19 19 20 21
4 2 1 1 3 2 2 3 2 3 7 5 4 3 4 5 3 1 5 10 8 5 4 4 8 12 13 12 12 13 14 18 22 28 30 31 33 33 32 30 30 29 27 29 30 31 31 32 32 32 32 31 30 29 29 29 28 28 27 27 27 26 26 25 25 23 22 21 20 19 17 17 17 16 17 16 16 15 16 17 18 18 18 18 18 18 18 18 18 18 19 19 19 19 20 21 22
3 3 2 2 0 3 4 4 5 5 3 1 5 4 3 5 3 1 7 12 8 4 1 3 8 11 11 11 12 12 12 17 21 24 27 29 30 28 27 27 27 28 28 29 30 31 32 33 33 33 33 32 32 31 30 30 30 29 29 29 29 28 28 27 26 25 24 23 22 21 19 18 18 17 18 18 17 17 17 18 18 19 18 18 19 18 18 18 19 19 19 19 20 20 21 22 23
2 3 2 3 2 5 5 4 5 5 2 2 5 1 5 1 1 3 9 10 5 3 6 5 8 9 9 10 11 12 11 15 20 22 26 26 24 23 26 27 27 30 32 30 30 32 33 33 33 34 33 33 32 32 31 31 31 31 31 30 30 30 29 28 28 27 26 25 24 23 21 20 18 18 19 19 19 19 19 19 19 19 19 19 19 19 18 18 18 19 19 20 20 21 22 22 24
3 5 5 4 2 3 3 2 4 4 1 1 4 2 6 3 2 4 7 6 2 4 6 5 8 9 10 9 10 13 13 18 23 22 21 20 22 26 28 29 31 34 33 32 33 33 33 34 35 35 34 33 33 33 33 33 32 32 32 31 31 31 30 29 29 28 28 27 26 25 23 21 19 18 19 20 20 20 20 21 21 21 20 20 19 18 18 17 18 19 19 20 21 22 23 24 24
5 6 5 6 6 2 3 3 2 3 1 0 6 3 5 4 1 5 3 6 2 5 6 5 7 7 8 9 8 10 13 20 22 18 19 22 27 31 32 35 37 36 35 38 38 34 34 35 35 35 35 34 34 34 33 33 33 33 32 32 32 32 31 30 30 30 30 29 28 26 25 23 21 19 19 20 20 21 22 22 22 22 22 21 20 19 18 18 18 19 20 20 22 23 25 26 25
4 6 4 6 8 4 3 1 2 2 1 2 4 1 4 2 7 7 0 5 4 1 5 5 7 7 6 7 6 7 13 16 16 18 25 29 32 33 35 39 39 37 39 39 37 35 35 36 36 36 36 36 36 35 34 34 34 34 34 33 33 32 32 31 30 30 31 31 29 28 26 25 24 21 20 20 20 21 22 23 24 24 23 22 21 19 19 19 19 20 21 22 23 25 26 27 26
2 4 5 2 7 4 4 2 1 1 1 3 3 1 6 7 11 7 2 4 4 1 7 6 6 6 5 6 6 7 11 13 16 25 31 31 32 32 34 38 36 36 37 35 35 36 37 36 37 37 37 37 37 36 35 34 34 35 35 34 33 33 33 32 31 31 31 32 31 30 28 27 26 23 22 21 20 21 23 24 25 25 24 23 22 21 20 21 21 22 23 24 25 26 27 27 27
2 3 3 2 1 4 6 2 2 3 1 2 6 2 6 8 11 8 6 2 4 6 8 7 7 6 6 5 6 7 10 15 21 28 31 32 32 31 34 36 34 34 34 34 36 37 36 36 37 37 38 38 38 37 36 35 35 35 35 34 34 34 34 34 33 32 31 31 32 32 31 29 28 26 25 24 23 22 23 25 26 25 25 24 23 22 21 22 23 23 25 26 27 27 28 28 27
4 2 1 3 2 5 8 2 4 5 1 5 7 2 6 8 10 8 5 2 6 8 7 7 7 7 7 6 6 7 9 15 21 25 29 31 31 32 34 35 34 35 35 36 36 35 35 36 37 38 39 39 39 38 37 36 36 35 35 34 35 35 35 35 35 33 30 31 32 33 33 32 30 29 27 27 27 26 25 26 27 27 26 25 24 23 23 24 25 25 26 27 29 29 29 28 28
4 3 2 2 2 3 5 2 2 2 0 3 3 2 4 5 8 7 4 4 4 3 7 7 7 8 8 6 7 7 8 10 14 22 29 31 32 34 36 36 36 35 36 36 35 35 36 36 37 38 39 40 39 38 38 37 37 36 36 36 35 34 33 34 35 34 32 32 32 33 34 34 33 32 30 30 30 29 27 26 28 29 28 27 26 25 25 25 26 27 28 28 29 30 30 30 29
3 2 2 3 3 2 2 3 3 2 2 1 1 2 6 7 8 10 6 4 5 5 7 8 7 7 7 6 7 7 8 8 10 19 28 32 34 36 36 36 36 35 35 35 35 36 36 36 37 38 39 40 39 39 38 38 38 37 36 37 37 35 34 35 36 36 36 35 34 33 35 36 35 34 34 33 33 33 31 28 29 31 30 29 28 27 27 27 28 29 29 30 29 30 32 31 29
5 3 3 2 2 3 3 3 2 2 2 2 0 2 10 12 10 11 9 2 3 8 8 8 8 8 8 7 7 8 9 10 13 20 26 28 31 34 35 36 35 35 34 34 34 35 35 35 36 37 38 39 39 39 38 38 37 37 36 36 36 36 36 37 38 38 38 37 36 34 34 35 36 36 36 36 36 36 34 32 31 32 33 32 31 30 30 30 30 31 31 32 30 30 31 32 31
9 6 5 5 3 3 5 4 4 1 3 3 5 5 9 11 10 11 11 3 2 8 8 7 9 8 9 8 8 9 9 12 16 21 22 22 25 29 31 34 34 33 32 32 32 33 34 35 35 37 38 38 38 38 37 37 36 36 36 35 34 36 37 36 35 37 37 36 37 35 35 37 38 39 39 39 39 39 38 35 33 35 36 35 34 33 33 35 35 35 34 34 33 30 29 31 31
7 6 5 4 4 3 4 3 5 0 3 4 4 5 9 11 12 12 11 6 4 9 10 10 10 9 10 10 10 10 11 12 12 16 19 19 21 23 25 28 30 29 29 30 31 33 35 36 36 37 38 38 38 38 38 38 37 35 35 35 35 35 36 36 34 35 36 36 36 35 35 38 40 40 41 41 40 40 39 37 37 37 38 38 37 37 36 36 36 36 35 35 35 33 31 31 32
6 6 5 2 3 3 2 1 5 3 1 4 2 3 10 11 12 13 10 8 9 11 12 13 13 11 10 10 12 11 9 10 10 12 16 17 18 20 21 23 26 28 30 32 33 35 35 35 37 37 37 38 39 40 40 40 40 38 36 36 36 33 33 35 36 36 37 35 35 36 35 36 38 41 43 43 42 41 41 40 40 40 40 41 39 38 37 36 36 37 37 35 33 34 34 34 35
5 4 6 3 2 2 3 3 4 5 1 4 5 5 10 10 11 12 12 11 10 10 11 12 12 11 11 10 10 10 9 10 10 11 14 18 19 18 19 21 25 28 30 32 33 33 34 35 36 36 36 37 39 40 40 40 40 39 37 35 35 34 32 33 34 35 36 36 36 35 35 36 38 39 41 43 43 42 42 42 42 41 41 42 41 40 39 38 38 39 39 38 34 32 32 35 39
4 4 5 3 2 1 1 3 4 4 2 1 4 6 9 7 6 11 12 10 8 9 10 11 10 11 13 10 8 9 10 12 11 9 11 15 17 16 18 21 24 26 27 29 31 32 33 35 36 36 36 37 38 39 39 39 37 36 34 32 31 31 32 32 32 33 34 35 36 36 35 36 38 39 38 40 41 42 42 41 41 41 42 44 44 43 42 43 42 41 41 40 38 34 30 34 40
0 3 5 4 3 4 3 2 2 3 4 3 4 6 7 4 4 8 7 4 6 6 7 9 10 10 11 9 8 10 10 10 10 10 9 10 13 16 18 20 21 24 27 29 31 33 33 34 35 35 35 36 36 37 38 37 35 33 31 27 25 25 27 28 30 33 33 34 35 37 37 36 35 35 36 37 39 40 40 40 40 41 43 46 46 45 44 44 44 44 43 42 42 40 35 35 39
2 3 6 7 7 6 3 2 4 4 4 4 4 3 6 5 5 8 6 6 7 6 6 11 11 7 8 8 9 9 9 9 8 9 9 8 13 16 16 17 19 23 27 29 30 31 31 32 32 33 33 34 35 35 36 36 35 34 31 29 26 24 25 27 30 33 34 35 36 36 37 38 36 34 34 37 39 40 41 42 42 43 44 46 47 46 44 42 43 45 45 44 43 42 38 35 39
2 4 5 6 7 8 6 4 4 1 3 3 3 2 5 7 6 8 6 7 10 10 9 13 12 7 6 7 8 8 8 8 7 8 8 8 11 13 14 18 21 24 25 26 26 27 28 29 29 31 32 33 33 34 34 35 35 35 34 33 32 31 30 32 34 35 35 36 36 36 36 37 38 37 36 36 38 40 41 42 43 45 46 47 47 46 45 45 46 47 47 48 46 44 41 37 40
3 4 6 8 8 8 7 6 4 2 3 4 4 4 2 7 6 6 4 6 10 11 11 12 10 6 5 6 8 8 8 7 6 7 7 7 11 13 16 18 20 21 21 21 23 24 26 27 27 28 29 30 31 32 33 34 35 35 35 35 35 35 35 34 34 34 35 35 35 37 37 38 38 39 39 38 37 38 40 43 44 46 48 48 47 48 49 48 48 47 46 47 45 45 46 43 43
4 3 6 7 7 7 5 6 4 1 2 4 4 2 2 6 7 5 4 4 8 10 12 12 9 8 7 8 8 8 8 6 6 7 7 7 10 12 14 13 14 16 16 17 20 22 23 24 25 25 27 28 29 30 31 33 34 35 35 36 35 36 36 34 31 31 32 33 35 37 37 39 39 39 40 40 40 40 41 42 42 43 45 46 47 48 49 48 48 49 49 48 46 46 47 45 44
3 6 8 6 6 6 5 5 4 3 2 4 5 3 2 5 7 5 2 3 7 10 10 9 9 9 8 8 8 7 6 5 6 7 7 9 9 7 7 8 9 12 14 15 16 18 20 22 23 24 25 26 27 28 30 31 33 34 35 36 36 36 35 33 31 29 29 30 32 34 35 37 38 38 38 38 38 38 38 40 42 44 45 47 49 50 48 47 46 49 51 51 50 47 47 46 45
7 7 7 7 6 5 4 3 4 3 3 6 6 3 2 4 7 5 4 5 6 5 7 8 8 9 7 6 6 6 5 5 5 4 5 8 6 3 4 6 7 8 11 13 14 16 18 20 21 22 23 24 25 27 28 29 31 33 35 36 36 36 35 33 32 31 30 30 31 33 33 34 36 37 39 39 39 36 33 35 40 44 45 45 47 49 50 48 47 47 47 47 48 47 46 46 44
6 5 5 5 3 4 4 4 3 1 5 6 5 2 3 4 7 5 6 7 6 5 6 8 9 9 8 5 4 4 4 5 4 2 2 2 2 4 5 6 6 8 10 12 14 15 16 18 19 21 21 23 24 25 26 28 30 32 34 35 36 36 35 34 34 34 34 33 34 34 33 33 34 36 38 40 42 40 35 32 33 38 42 44 45 46 48 48 47 46 45 45 47 47 47 44 43
5 5 6 5 2 3 2 3 0 3 6 3 3 2 3 6 8 7 10 10 8 8 7 8 8 8 8 6 6 5 4 5 4 3 3 1 3 5 6 7 7 8 10 12 13 14 16 17 18 20 21 22 23 24 25 27 29 32 33 34 35 35 35 35 35 36 35 35 34 34 33 33 34 35 37 40 42 43 42 38 35 34 38 43 45 46 47 47 46 44 44 46 48 48 48 46 45
4 5 5 4 3 2 2 4 2 4 4 3 3 2 3 5 5 8 13 10 5 6 7 8 7 8 8 7 6 6 5 5 4 4 4 3 4 4 5 7 8 9 10 11 13 14 15 17 18 20 21 21 22 23 25 27 29 30 31 32 33 34 35 35 36 36 35 34 34 34 34 34 34 35 36 37 39 40 42 44 41 38 37 40 43 45 46 46 46 45 45 46 47 47 48 47 47
3 4 5 5 5 4 4 4 3 4 3 3 3 1 3 3 3 6 10 8 6 6 7 6 6 7 7 7 7 7 6 5 5 5 5 5 6 6 4 6 8 9 10 10 12 13 15 16 18 19 20 20 22 23 24 26 28 28 29 31 32 33 34 35 35 35 35 35 34 35 35 35 35 36 36 35 35 35 37 40 41 41 39 39 41 44 45 45 45 45 44 44 45 46 46 46 46
2 2 5 3 5 5 2 3 5 3 2 3 2 4 5 4 6 9 7 7 8 7 6 5 6 6 5 5 6 6 5 4 5 5 5 6 7 7 7 8 9 9 10 11 12 13 14 15 17 18 19 20 21 22 24 25 26 27 28 30 31 32 33 34 35 35 35 35 35 35 36 36 36 36 35 35 34 33 33 33 35 38 40 39 40 42 43 44 44 44 43 43 44 45 44 44 45
2 2 3 5 4 7 5 2 1 3 1 4 1 5 6 4 7 9 6 8 9 7 7 6 7 7 6 6 4 4 5 5 6 6 5 5 6 7 9 10 11 10 11 11 11 12 13 14 16 18 19 20 21 22 23 24 25 26 28 29 30 31 33 34 35 35 35 34 35 36 36 36 36 36 35 34 34 34 33 32 31 34 38 39 39 42 43 43 43 44 44 45 45 46 45 45 46
5 3 5 4 2 4 4 2 3 4 3 4 1 5 5 2 5 6 4 6 9 9 8 7 7 7 7 6 2 4 7 5 6 7 5 6 7 9 11 11 11 11 11 11 10 11 12 14 15 17 18 19 20 20 21 22 24 26 27 29 30 31 32 33 34 34 34 34 35 36 35 36 36 35 35 34 34 34 33 32 31 32 36 38 38 40 42 43 43 43 45 46 47 46 44 45 45
5 4 3 4 3 1 2 2 1 1 3 4 4 5 4 5 6 4 1 7 9 10 9 8 8 7 8 6 2 4 7 5 6 6 5 6 8 11 13 12 11 10 11 11 10 11 12 14 15 17 18 19 19 20 21 22 23 25 26 28 29 31 31 32 33 33 34 34 36 36 35 36 35 34 34 34 34 34 33 32 31 31 34 37 38 38 39 41 42 43 44 45 46 44 43 44 44
4 2 3 3 2 4 3 3 4 3 3 3 4 4 3 7 7 5 8 9 9 10 9 8 9 8 8 6 0 2 6 6 5 5 5 6 8 13 14 13 12 10 11 11 11 12 13 13 15 17 18 19 19 21 21 22 23 24 26 27 29 31 32 32 33 33 34 35 36 36 36 36 35 34 34 34 34 34 33 33 32 32 33 36 37 39 40 41 42 43 45 45 45 44 43 44 44
2 3 4 2 1 2 2 1 2 4 4 3 3 5 6 6 4 8 11 9 9 10 9 9 10 9 7 3 1 4 6 6 5 4 5 5 9 13 12 10 11 10 11 12 12 12 13 13 16 17 18 20 21 21 22 22 23 23 25 27 28 30 31 32 33 33 35 36 36 36 36 35 35 35 34 34 34 34 33 33 32 32 33 35 37 39 40 40 41 42 44 44 44 43 43 44 43
7 6 7 7 5 4 3 3 1 3 3 4 3 5 8 6 4 7 8 8 9 9 8 8 9 8 7 5 4 6 5 5 5 4 4 5 7 8 6 5 8 10 13 13 12 12 13 15 16 17 19 21 21 21 22 22 23 24 26 27 28 30 31 32 33 34 35 36 37 37 36 35 35 36 35 34 35 34 33 33 33 34 34 34 36 38 40 40 40 42 43 43 43 42 42 43 42
Wind_Direction
0 344 324 263 289 278 15 56 85 322 71 81 333 116 226 201 186 167 133 179 84 293 242 50 85 114 116 130 155 152 131 157 164 145 203 254 156 158 164 162 162 162 162 157 156 156 153 152 148 145 144 142 140 137 131 123 117 114 110 106 100 94 89 83 83 85 87 92 95 95 93 91 92 98 94 92 94 91 89 86 84 88 93 94 95 93 87 84 83 86 86 87 91 91 87 84 85
6 342 8 166 21 46 243 69 95 335 57 108 259 156 247 336 129 184 179 195 174 169 145 109 102 81 66 91 116 109 57 349 182 177 254 164 149 159 166 163 164 164 162 160 161 160 156 153 152 150 148 145 142 140 136 129 123 118 116 112 106 100 93 88 86 89 91 93 97 97 94 91 96 106 101 96 96 94 93 91 88 91 97 97 97 94 89 87 87 88 89 90 93 94 92 89 89
12 196 79 145 42 40 69 44 97 75 82 163 256 242 258 130 189 208 206 206 169 158 152 117 85 70 57 58 66 85 53 327 174 190 127 151 151 163 169 166 166 165 163 163 165 163 158 156 155 154 152 147 142 142 140 135 128 122 120 118 113 105 98 94 91 94 97 98 100 98 94 95 99 105 104 101 99 97 96 93 91 95 100 100 98 96 92 89 90 91 90 92 93 94 95 94 93
8 5 1 158 68 29 63 43 135 122 125 190 243 258 238 181 201 220 227 225 196 166 182 80 44 10 63 85 95 84 144 243 178 176 145 165 164 164 167 167 168 167 166 165 167 166 161 159 158 158 155 150 145 144 143 138 133 128 124 122 117 109 102 98 97 99 100 102 103 99 96 99 103 105 105 103 103 101 98 95 93 99 103 102 101 97 93 91 92 92 91 93 94 95 96 96 96
352 358 356 124 90 40 92 74 113 115 177 183 165 255 242 200 198 200 227 252 236 224 207 110 73 295 38 116 140 144 198 154 182 204 157 175 171 161 165 168 169 169 169 168 168 168 166 163 162 162 158 154 150 146 145 142 139 133 128 124 119 113 108 101 99 101 103 105 106 106 101 99 103 107 107 103 103 102 99 97 97 101 104 103 101 98 94 93 94 93 93 96 98 99 97 96 100
358 77 55 69 88 111 117 130 145 164 212 168 151 241 229 202 201 182 186 274 255 222 193 105 127 158 51 342 328 164 193 117 170 199 171 178 173 163 167 170 171 171 170 170 170 171 170 168 167 166 162 158 154 151 150 146 144 139 132 127 124 120 113 106 103 103 107 109 110 113 108 104 105 106 111 109 105 103 102 99 101 104 105 104 102 98 95 96 97 96 96 98 100 101 98 100 103
46 127 36 62 67 45 104 156 177 195 199 168 174 196 192 205 206 160 147 186 230 316 70 86 141 113 80 303 64 186 296 161 165 183 178 178 175 169 170 171 172 172 172 172 172 174 173 173 172 170 167 162 158 157 153 150 149 144 136 132 132 127 118 111 108 109 113 113 112 118 117 112 112 111 109 110 108 106 107 103 104 107 106 106 103 99 98 98 98 98 100 100 102 101 100 103 105
61 107 22 90 59 27 90 121 198 192 132 215 222 182 182 199 184 150 156 147 163 327 47 204 131 91 270 1 124 275 318 183 163 172 180 176 175 174 173 174 173 173 173 174 174 174 174 174 175 174 170 165 162 160 157 155 154 149 142 138 137 133 124 117 115 115 118 117 113 122 125 118 117 116 110 111 110 106 107 104 107 110 108 108 105 101 99 99 100 100 102 102 103 101 102 103 104
52 40 25 87 86 34 50 25 289 227 276 257 228 188 180 182 170 143 139 99 186 145 74 217 176 86 199 60 245 284 349 174 165 170 176 170 171 173 176 177 176 174 174 176 176 176 174 175 177 177 173 170 165 162 162 160 157 153 147 141 141 139 131 125 122 121 124 121 116 125 131 126 121 118 115 116 111 104 104 100 108 114 111 109 107 103 102 102 102 103 104 105 104 104 103 104 106
44 24 127 78 84 57 22 322 281 253 273 257 214 209 183 168 165 130 125 137 148 116 213 216 77 75 146 119 247 295 64 167 161 168 171 166 169 172 177 180 180 177 175 177 178 178 176 176 179 180 178 174 169 165 167 165 161 157 152 148 147 144 137 132 130 128 130 126 121 125 131 130 125 123 124 124 117 111 108 104 114 118 113 113 111 106 107 105 104 106 106 106 106 107 105 106 112
38 352 99 73 69 102 188 209 264 265 282 293 254 237 186 160 134 89 92 136 109 103 176 135 96 118 97 36 248 289 202 166 163 168 170 169 172 175 178 181 184 182 178 178 180 181 178 178 182 182 180 177 172 170 171 169 165 161 158 156 153 149 143 141 138 134 135 133 126 125 128 126 126 129 130 129 125 121 117 115 122 122 117 118 114 109 111 107 106 108 107 107 109 109 110 112 115
89 332 68 82 127 181 199 172 249 274 309 307 218 243 165 139 129 143 140 148 158 124 213 208 159 135 82 315 259 301 215 171 168 168 170 175 177 178 180 182 185 186 182 181 183 184 180 180 184 183 182 180 176 175 175 171 169 168 165 162 159 155 150 149 147 144 143 140 133 128 128 125 127 132 134 134 126 123 123 120 122 123 121 123 121 118 119 115 114 114 111 112 112 112 113 114 116
122 138 91 103 160 162 160 146 241 305 330 261 208 216 139 137 189 179 152 131 140 144 247 217 150 111 105 260 271 312 222 178 167 167 173 179 182 182 183 184 186 188 186 186 187 187 184 183 185 184 184 183 180 178 177 175 174 173 171 168 164 161 158 156 153 151 150 146 140 135 134 132 132 133 136 137 129 129 130 125 122 123 124 126 133 132 126 124 123 121 119 119 119 117 115 115 116
139 147 113 124 83 131 153 136 227 170 246 252 220 173 147 170 208 169 137 129 196 181 240 194 147 122 124 262 292 291 210 182 167 168 172 177 184 186 187 188 188 190 191 192 192 192 189 187 187 186 186 185 184 181 179 181 179 178 177 174 169 167 166 162 159 157 154 151 145 141 140 138 137 134 137 139 136 137 135 130 123 125 127 125 136 139 130 128 128 125 125 124 124 123 120 119 118
136 132 91 107 61 127 170 168 171 154 220 224 170 158 149 275 146 148 159 153 217 224 101 114 140 168 177 176 233 230 193 180 168 169 169 171 180 187 192 193 193 195 195 197 197 197 195 192 191 189 190 188 187 184 183 185 184 183 183 180 175 173 171 168 165 163 160 157 152 148 145 142 140 137 138 139 141 141 139 135 127 127 128 125 134 139 134 134 133 130 130 129 129 128 126 124 123
118 109 71 87 116 184 182 180 133 132 239 210 164 144 131 299 140 159 222 148 176 278 42 254 102 20 183 169 249 214 179 173 169 171 170 169 172 181 192 195 196 199 198 200 201 202 199 196 195 193 193 191 190 188 186 188 187 186 185 183 180 178 176 173 170 167 165 163 159 154 151 147 143 141 140 141 144 144 143 137 130 128 127 129 138 140 140 142 141 138 136 135 134 133 131 130 130
75 82 72 78 172 201 188 175 167 171 230 218 230 165 135 258 255 178 262 90 124 71 37 264 316 26 195 229 314 180 170 170 171 173 173 172 174 177 187 194 197 199 200 202 203 204 203 200 199 196 196 195 193 191 190 190 189 189 187 186 184 182 180 177 174 171 170 167 164 160 156 152 148 146 145 145 147 148 146 139 134 132 130 135 143 143 145 148 146 144 141 140 139 138 136 135 136
59 84 107 168 188 203 184 178 194 174 188 197 199 180 142 155 207 176 51 47 65 60 18 328 328 348 302 291 305 158 165 171 174 174 176 176 179 180 184 192 196 199 201 203 205 206 205 203 202 199 199 197 196 194 192 191 189 190 191 190 188 186 185 181 178 176 175 172 169 166 163 159 155 153 151 151 152 153 152 146 142 137 136 142 147 147 150 151 150 148 146 144 143 142 140 139 140
84 112 118 214 204 204 194 178 193 176 171 177 172 181 158 164 169 138 162 261 62 126 304 345 336 311 1 22 141 153 163 171 175 177 179 181 184 185 186 192 197 201 202 204 207 207 207 206 204 202 202 199 198 196 195 193 190 192 194 194 191 189 188 186 183 182 181 179 177 174 170 166 162 159 157 157 158 157 155 153 148 141 143 150 153 154 156 155 154 152 150 148 147 145 143 142 144
142 124 123 237 212 218 230 186 204 219 157 149 161 177 164 172 159 144 173 180 184 192 216 317 268 256 305 104 146 152 162 171 178 180 184 189 191 190 190 194 199 202 204 206 207 208 209 208 205 204 204 201 200 198 197 196 193 193 195 197 196 192 191 190 188 187 187 187 184 182 178 174 171 167 163 164 164 162 159 158 155 152 155 159 160 161 161 160 158 156 154 152 151 149 147 144 146
144 126 176 229 195 192 232 193 225 240 166 154 146 128 148 203 158 140 147 146 250 243 221 199 205 206 180 181 166 158 163 171 181 186 189 192 195 196 197 200 202 203 204 205 207 208 209 209 207 205 205 203 201 201 199 198 197 195 196 199 200 196 193 192 192 192 193 192 190 189 187 181 178 176 172 172 172 170 168 167 165 164 165 164 165 166 163 163 162 159 158 157 154 152 150 148 148
111 189 195 205 163 135 223 188 224 207 137 123 126 145 173 165 119 149 154 165 228 233 220 208 199 181 169 176 174 167 169 175 185 191 193 195 197 199 202 205 204 204 205 206 208 210 210 210 208 207 205 204 203 203 202 200 200 198 197 200 202 200 197 194 193 196 196 196 195 194 192 188 186 184 180 178 179 179 176 174 173 174 171 167 169 170 167 166 166 164 163 160 158 157 153 151 151
131 256 225 207 196 189 348 126 258 153 122 133 157 169 143 128 240 187 175 202 222 223 229 216 198 175 167 163 165 172 178 183 191 195 195 196 199 201 202 204 204 203 205 208 209 210 212 212 210 208 206 205 205 205 204 202 202 202 199 201 203 202 200 197 195 197 199 198 199 200 199 195 192 189 187 184 183 184 182 180 179 179 177 172 173 175 171 170 169 166 166 164 162 161 158 156 155
102 178 270 193 198 223 2 36 356 107 126 173 168 128 137 165 198 120 207 234 237 245 277 225 172 158 156 156 170 182 186 190 196 199 198 199 201 203 203 204 204 205 206 209 210 210 212 213 212 211 209 207 205 206 206 203 203 204 202 202 204 205 203 201 198 197 200 201 201 203 204 201 198 196 192 188 186 186 186 186 184 183 182 178 176 179 177 173 172 170 169 167 165 165 162 160 159
91 171 208 117 156 305 350 38 44 59 98 133 110 122 212 191 163 133 237 247 250 235 30 99 142 146 159 170 183 189 192 198 203 205 205 206 207 207 208 207 207 208 210 211 211 212 213 213 213 212 212 210 207 207 208 206 204 205 204 203 204 207 207 205 201 198 201 204 203 204 206 206 203 201 196 191 189 188 189 190 188 187 186 183 179 181 182 178 175 173 172 170 168 168 165 163 162
183 141 150 105 6 335 3 37 34 31 23 60 101 90 296 246 173 271 249 250 255 144 91 99 135 148 178 183 188 191 194 203 206 208 211 213 212 214 215 212 212 212 213 213 212 214 214 213 213 212 212 212 210 209 210 208 205 205 207 205 205 208 208 208 204 200 202 205 206 206 209 211 209 205 200 194 191 191 192 192 191 189 188 187 183 183 185 184 180 177 176 173 171 170 167 166 164
154 107 98 76 4 329 30 56 356 7 23 47 130 211 298 331 335 262 266 293 306 137 116 123 151 168 190 192 196 197 200 206 206 207 210 214 215 218 218 216 217 217 215 215 215 215 214 213 213 213 213 212 211 210 211 211 209 208 209 208 206 208 209 209 207 204 204 206 209 209 210 212 213 209 202 198 195 195 195 194 193 192 190 189 188 187 186 187 185 180 179 176 174 172 168 167 167
117 115 88 7 352 0 43 79 340 358 86 106 128 158 304 356 292 225 265 335 353 175 172 159 177 195 199 200 204 202 212 214 208 204 207 211 214 216 217 217 218 218 217 218 218 216 214 214 214 214 214 213 212 211 211 212 212 212 213 212 209 209 210 209 209 207 206 207 210 212 212 213 213 210 205 203 200 199 199 197 196 195 194 191 191 192 188 187 186 181 179 178 175 173 169 166 166
108 100 93 338 359 12 332 59 317 356 120 254 123 102 299 244 234 223 300 357 26 186 228 216 211 220 212 209 213 212 222 220 210 212 215 215 216 216 218 220 219 218 220 221 220 218 217 215 214 214 214 213 213 213 213 213 214 215 215 216 214 210 210 211 211 210 209 209 210 213 215 215 214 212 208 206 207 206 204 201 199 197 196 195 193 194 192 188 187 182 179 179 177 175 171 166 165
110 63 91 14 10 345 305 36 336 116 149 273 138 225 275 248 249 249 313 358 57 263 255 244 236 236 227 215 217 226 227 218 212 218 221 221 221 221 223 225 222 221 223 222 221 221 220 217 214 214 213 213 215 215 215 215 215 214 214 218 219 215 211 212 214 213 212 211 211 213 215 217 215 215 212 208 211 213 210 206 203 200 198 198 195 195 195 191 189 186 182 179 177 176 173 169 169
80 59 57 48 83 269 300 338 142 144 229 18 104 180 267 269 276 275 298 340 155 224 249 242 247 245 238 226 221 235 231 222 222 224 225 226 226 226 228 230 227 225 225 223 224 223 222 220 216 215 213 213 214 215 215 216 215 214 214 217 220 221 216 213 214 216 216 214 214 214 214 217 217 218 217 213 214 217 216 211 207 203 201 201 199 197 197 194 191 189 185 182 177 176 175 171 172
44 100 325 346 168 259 306 293 159 154 272 39 92 202 269 278 282 280 308 36 159 215 252 259 263 257 248 239 229 239 242 232 232 234 233 232 231 230 232 233 231 229 227 226 225 224 222 222 219 216 215 214 215 215 215 216 216 216 216 218 219 221 221 217 214 217 219 218 218 217 215 216 218 220 220 218 218 217 217 217 212 207 204 202 201 198 198 196 193 190 188 187 181 176 175 173 172
1 102 189 252 171 266 311 300 236 163 147 23 78 212 265 287 280 280 317 57 107 228 270 273 264 260 254 244 237 240 250 245 237 237 237 235 234 234 235 236 236 234 232 229 226 225 223 222 220 219 218 217 217 217 217 218 219 218 218 220 219 220 223 223 219 219 223 223 221 220 218 216 217 220 220 220 221 219 218 219 216 210 207 206 203 199 199 198 196 192 187 188 187 181 177 175 172
294 64 136 221 187 201 285 294 291 51 99 272 27 232 250 271 285 289 298 47 32 309 279 274 264 259 254 248 248 245 246 248 241 236 235 235 236 237 238 239 239 237 235 232 229 227 226 223 221 221 220 220 219 218 218 219 222 221 220 221 222 224 227 226 224 221 222 222 222 223 221 218 218 220 221 220 220 220 219 219 217 213 209 207 204 201 199 198 197 195 189 187 189 185 181 178 175
191 177 149 206 213 201 247 266 246 76 81 221 219 268 262 269 280 286 285 322 330 285 274 277 272 263 258 248 244 244 245 247 244 240 238 237 237 239 239 240 240 238 235 233 230 228 227 225 223 222 220 220 220 220 219 220 222 223 222 221 222 224 224 222 221 220 218 217 219 223 225 223 221 222 222 222 220 218 216 216 217 214 211 208 205 202 198 197 196 196 193 188 187 187 185 182 178
168 175 148 156 179 229 241 251 265 160 120 223 219 229 262 271 276 280 283 302 305 280 283 280 272 267 262 254 245 242 243 245 246 246 246 243 243 243 243 241 239 237 235 231 228 226 225 224 223 221 220 219 218 218 217 218 219 221 222 222 221 220 220 219 220 221 220 217 216 217 221 224 224 222 221 221 220 218 215 214 216 214 211 208 205 203 201 200 198 195 194 190 186 183 184 184 180
136 132 115 145 175 240 258 272 304 347 142 251 236 235 262 268 273 272 276 302 298 274 274 266 261 260 257 255 253 247 242 251 258 257 254 249 248 248 246 243 237 234 232 229 226 224 224 223 221 221 220 217 215 215 215 215 216 217 219 220 221 221 221 223 225 225 223 223 221 219 220 222 223 223 222 219 216 216 216 215 216 214 210 208 209 209 206 203 198 194 191 190 188 184 182 183 181
100 132 131 141 185 225 258 251 317 354 150 269 359 311 266 258 267 271 274 282 265 251 253 256 254 251 252 252 253 254 256 269 273 263 258 252 249 248 243 238 231 228 228 225 225 225 224 221 221 222 220 216 215 215 215 216 217 217 218 219 222 223 224 225 228 230 228 227 227 225 227 227 224 222 222 219 217 215 215 216 215 214 210 209 209 209 206 202 197 194 190 187 188 188 185 184 182
87 115 133 152 212 241 287 298 331 11 84 272 352 336 274 256 257 263 259 255 251 243 241 249 255 255 252 247 248 256 264 270 269 264 261 256 250 246 240 233 228 228 227 224 224 223 221 220 220 221 220 218 217 217 217 219 221 221 221 222 223 224 226 227 228 230 229 228 229 229 231 233 230 226 220 216 216 215 214 215 216 216 214 211 208 205 203 201 198 196 194 190 187 187 187 187 186
89 109 132 174 239 167 249 297 328 11 72 270 337 317 282 273 269 265 258 256 266 266 254 251 252 253 255 251 246 245 248 255 262 265 265 261 256 246 236 230 228 225 223 222 221 220 220 220 220 219 219 220 219 218 219 220 221 221 222 224 226 226 228 229 229 229 228 227 229 230 231 232 232 231 224 217 216 215 214 215 215 216 218 216 211 206 203 200 198 197 196 194 188 184 183 187 189
77 143 143 164 197 169 186 280 333 0 19 30 15 324 292 310 325 285 279 302 288 275 281 273 252 245 257 264 253 241 241 245 249 255 258 259 255 245 235 230 226 221 220 221 220 220 221 221 221 220 220 221 220 220 219 218 218 217 217 218 222 224 225 226 226 228 228 227 227 228 229 230 230 230 229 227 224 222 221 221 221 220 219 216 212 208 205 201 199 198 197 195 193 190 187 188 189
268 220 178 172 170 162 161 53 53 31 351 350 27 343 287 314 321 275 287 330 303 287 298 282 267 248 244 254 255 247 246 245 241 248 251 249 250 249 241 231 224 222 223 224 222 221 221 222 221 220 220 221 221 221 219 217 216 215 214 213 214 216 219 222 223 225 226 227 229 228 228 229 230 230 231 234 233 231 228 227 227 225 220 216 212 209 207 204 201 202 201 198 197 198 193 188 190
221 235 174 147 131 130 139 114 88 106 258 310 48 127 263 307 292 260 293 330 302 294 295 280 275 266 237 236 251 249 248 248 247 253 252 247 247 245 238 229 224 225 227 225 222 221 221 222 222 221 221 222 221 221 219 217 216 216 216 217 217 218 220 225 227 228 228 229 231 231 231 231 231 232 232 233 233 232 232 232 232 231 226 221 217 212 209 208 207 206 205 203 202 200 197 193 193
220 231 130 121 121 133 142 117 106 190 239 325 15 118 229 292 268 262 319 327 300 296 289 277 277 288 266 241 245 248 248 245 244 255 256 247 238 231 231 230 226 227 227 223 220 221 221 222 224 223 223 223 222 221 220 219 218 218 219 220 222 224 226 230 231 232 232 233 233 234 234 234 235 236 237 237 237 237 236 232 229 227 224 222 220 215 213 213 211 207 205 205 204 201 202 202 198
235 201 119 117 122 128 121 100 95 52 356 312 308 136 188 269 274 303 339 306 290 282 273 274 287 301 282 258 253 253 255 248 240 248 257 255 243 233 233 234 229 226 225 223 222 222 221 222 223 223 223 223 223 222 222 222 222 222 223 223 224 228 230 233 235 235 235 235 236 235 235 235 235 236 237 238 238 239 237 231 227 225 223 223 221 219 217 215 212 209 207 207 206 204 205 207 203
187 138 97 76 76 79 78 90 97 49 2 253 237 189 196 266 281 304 324 276 264 263 268 276 286 291 277 266 265 263 267 265 250 244 251 263 263 252 239 231 228 224 221 222 221 220 220 220 221 222 224 224 224 224 223 223 224 224 225 225 227 229 231 232 235 237 237 236 237 237 236 235 235 235 235 236 234 233 233 233 233 230 227 225 223 221 219 217 214 211 210 208 206 206 207 208 208
137 108 75 60 39 36 48 54 80 66 293 256 240 215 177 273 276 258 232 227 220 242 287 294 300 308 296 277 272 270 279 287 273 250 253 270 269 248 225 217 216 216 215 216 218 218 218 219 221 222 224 225 225 225 225 225 225 226 227 228 230 232 232 233 234 236 237 237 239 240 240 238 237 235 235 236 235 233 232 232 232 230 227 224 222 221 219 218 216 214 212 208 206 208 210 210 211
107 86 86 88 9 11 25 359 44 128 254 261 266 246 149 227 258 250 247 252 227 217 266 285 297 309 305 310 326 312 302 312 320 279 257 273 219 191 194 200 205 207 210 212 214 217 217 218 221 223 224 225 225 226 227 228 228 229 230 231 234 235 236 236 237 239 240 240 242 243 243 241 239 237 235 235 236 237 238 239 237 233 230 228 226 224 222 220 218 216 214 210 210 212 213 212 212
76 92 95 94 2 7 353 309 335 222 247 269 286 248 192 235 247 254 264 269 246 218 228 252 268 285 300 335 352 335 324 332 338 317 290 264 204 198 184 190 204 206 209 212 214 217 218 220 222 224 227 227 227 228 229 230 231 232 233 234 237 239 239 241 242 243 244 245 246 245 245 244 242 240 237 236 236 237 239 243 245 241 236 233 231 228 225 222 221 219 216 215 215 215 214 214 215
121 134 124 124 124 97 260 267 278 259 260 293 294 254 260 276 265 246 250 258 251 222 229 241 248 264 283 312 325 314 317 323 317 304 295 280 252 231 196 197 210 211 214 216 217 220 221 223 224 228 231 230 230 231 231 233 234 236 237 239 241 241 242 244 245 247 247 248 249 249 249 248 248 247 244 244 242 239 239 241 245 247 245 239 234 230 226 223 222 220 219 218 218 218 216 216 218
172 157 131 146 157 157 208 217 209 246 278 308 299 246 209 233 285 255 247 267 288 262 252 255 256 259 270 295 299 290 294 303 300 294 283 275 270 261 235 221 220 219 222 220 221 225 225 228 230 232 234 233 233 234 234 236 238 239 240 241 243 243 245 247 248 249 250 250 251 252 252 252 252 252 251 252 251 246 244 243 245 247 248 244 237 232 228 224 223 222 221 222 221 220 219 218 220
234 121 106 165 184 143 140 185 176 177 324 310 262 235 217 214 276 279 268 288 295 280 277 275 272 282 292 285 276 279 293 292 281 274 266 264 262 257 248 239 232 225 225 226 226 228 232 236 238 239 241 240 240 240 240 241 242 243 244 244 245 245 246 247 248 250 251 251 252 253 254 255 255 256 255 254 254 252 252 251 249 249 247 244 239 235 231 226 224 223 224 224 222 222 221 222 223
167 134 173 209 170 114 113 228 40 77 262 277 220 249 287 322 287 285 293 299 305 302 292 282 281 299 304 283 274 285 279 260 254 257 258 272 275 262 251 244 239 232 229 233 233 235 240 243 244 246 246 244 245 245 245 247 247 246 247 247 247 247 247 248 250 251 252 253 254 254 255 256 256 256 256 255 255 255 255 256 255 252 248 244 240 236 233 230 227 225 224 224 224 224 225 226 226
129 180 206 185 104 85 109 194 355 43 245 276 268 245 281 315 274 310 338 285 289 291 286 292 296 296 290 284 251 244 258 253 262 268 272 284 284 274 265 256 250 244 242 244 244 244 246 246 248 250 250 249 249 251 251 252 251 251 251 251 250 250 250 251 252 253 254 254 254 254 255 256 257 256 256 256 256 256 256 256 258 256 250 245 241 235 232 230 227 225 226 226 227 227 227 228 228
127 182 175 115 137 185 94 150 187 129 236 277 293 274 261 212 234 308 285 221 243 264 274 286 283 269 270 273 190 229 272 279 275 278 286 285 280 277 275 270 264 258 254 253 251 250 248 249 253 254 256 257 257 257 256 256 255 255 256 256 256 255 254 254 254 253 253 253 254 255 255 256 257 257 257 257 257 257 256 256 259 260 252 245 241 237 234 232 230 227 227 228 229 229 229 230 230
53 92 100 81 141 170 158 156 167 170 198 252 304 318 269 226 214 204 217 218 216 235 255 269 267 252 252 266 229 258 276 278 274 279 281 278 279 278 276 274 271 266 263 260 254 252 252 253 256 256 258 259 259 258 257 258 259 259 260 260 260 259 257 256 255 254 253 254 255 255 255 256 257 258 257 257 257 257 257 257 259 261 256 247 242 240 238 235 232 230 229 230 231 230 230 230 230
111 127 158 182 83 106 163 179 127 140 163 192 271 290 265 248 207 191 211 220 210 215 226 241 254 254 256 273 246 244 261 273 277 277 278 286 285 278 272 272 274 268 262 258 252 253 255 255 256 257 258 258 257 258 258 260 262 262 262 263 263 262 261 259 257 255 254 256 256 255 255 256 257 257 257 257 257 256 256 257 258 260 258 252 245 241 239 237 234 232 232 232 232 230 229 230 230
169 176 188 185 165 130 159 237 226 124 155 174 183 263 267 250 204 197 206 214 216 215 216 232 254 277 299 305 252 237 251 268 271 277 283 281 278 274 264 259 260 253 249 248 249 253 255 257 260 260 260 259 259 261 262 264 266 265 266 266 266 265 263 261 259 257 256 257 256 256 256 255 256 256 256 255 256 256 255 256 256 257 258 255 250 244 240 238 236 234 233 232 231 230 230 230 229